CW4279 Weather Reports


Display with metric or nautical units.
time (UTC)temp
F
wind
direction
speed
MPH
gust
MPH
rain 1hr
in
rain 24hr
in
rain mn
in
humidity
%
barometer
mb
20260901034418 66 152 0.0 0.0 0.00 0.00 0.00 98 1044.7
20260901033913 66 152 0.0 0.0 0.00 0.00 0.00 98 1044.6
20260901033412 66 152 0.0 0.0 0.00 0.00 0.00 98 1044.7
20260901032911 67 152 0.0 0.0 0.00 0.00 0.00 97 1044.6
20260901032410 67 152 0.0 0.0 0.00 0.00 0.00 97 1044.6
20260901031905 67 152 0.0 0.0 0.00 0.00 0.00 97 1044.8
20260901031401 67 152 0.0 0.0 0.00 0.00 0.00 96 1044.5
20260901030900 68 152 0.0 0.0 0.00 0.00 0.00 96 1044.7
20260901030356 68 152 0.0 0.0 0.00 0.00 0.00 96 1044.7
20260901025855 68 152 0.0 0.0 0.00 0.00 0.00 95 1044.6
20260901025350 69 152 0.0 0.0 0.00 0.00 0.00 94 1044.3
20260901024845 69 152 0.0 0.0 0.00 0.00 0.00 93 1044.5
20260901024344 69 152 0.0 0.0 0.00 0.00 0.00 93 1044.3
20260901023843 69 152 0.0 0.0 0.00 0.00 0.00 93 1044.5
20260901023338 69 152 0.0 0.0 0.00 0.00 0.00 93 1044.3
20260901022833 69 152 0.0 0.0 0.00 0.00 0.00 93 1044.2
20260901022329 70 152 0.0 0.0 0.00 0.00 0.00 92 1044.2
20260901021824 70 152 0.0 0.0 0.00 0.00 0.00 91 1044.1
20260901021319 70 152 0.0 0.0 0.00 0.00 0.00 90 1044.2
20260901020814 71 152 0.0 0.0 0.00 0.00 0.00 89 1044.5
20260901020309 71 152 0.0 0.0 0.00 0.00 0.00 89 1044.1
20260901015804 71 152 0.0 0.0 0.00 0.00 0.00 88 1044.1
20260901015301 71 152 0.0 0.0 0.00 0.00 0.00 87 1044.1
20260901014759 72 152 0.0 0.0 0.00 0.00 0.00 87 1044.0
20260901014255 72 152 0.0 0.0 0.00 0.00 0.00 86 1044.0
20260901013751 73 152 0.0 0.0 0.00 0.00 0.00 84 1043.8
20260901013246 73 152 0.0 0.0 0.00 0.00 0.00 82 1044.0
20260901012742 73 152 0.0 0.0 0.00 0.00 0.00 81 1043.8
20260901012241 74 152 0.0 0.0 0.00 0.00 0.00 81 1043.7
20260901011737 74 152 0.0 0.0 0.00 0.00 0.00 80 1043.6
20260901011232 75 152 0.0 0.0 0.00 0.00 0.00 78 1043.5
20260901010726 75 152 0.0 0.0 0.00 0.00 0.00 77 1043.6
20260901010221 76 152 0.0 0.0 0.00 0.00 0.00 78 1043.8
20260901005720 76 152 0.0 0.0 0.00 0.00 0.00 76 1043.9
20260901005215 76 145 0.0 0.0 0.00 0.00 0.00 76 1043.8
20260901004715 76 153 1.0 1.0 0.00 0.00 0.00 76 1043.8
20260901004209 77 151 0.0 0.0 0.00 0.00 0.00 77 1043.6
20260901003703 77 151 0.0 0.0 0.00 0.00 0.00 75 1043.5
20260901003203 78 151 0.0 0.0 0.00 0.00 0.00 73 1043.7
20260901002657 78 152 0.0 1.0 0.00 0.00 0.00 73 1043.5
20260901002152 79 141 0.0 0.0 0.00 0.00 0.00 72 1043.4
20260901001648 79 141 0.0 0.0 0.00 0.00 0.00 71 1043.4
20260901001143 80 155 0.0 0.0 0.00 0.00 0.00 70 1043.4
20260901000638 80 155 0.0 0.0 0.00 0.00 0.00 69 1043.4
20260901000133 81 136 0.0 1.0 0.00 0.00 0.00 68 1043.4
20260831235627 80 136 0.0 0.0 0.00 0.00 0.00 66 1043.3
20260831235122 81 136 0.0 0.0 0.00 0.00 0.00 67 1043.5
20260831234621 81 136 0.0 0.0 0.00 0.00 0.00 66 1043.3
20260831234117 82 136 0.0 0.0 0.00 0.00 0.00 65 1043.2
20260831233612 83 135 0.0 0.0 0.00 0.00 0.00 64 1043.3
20260831233108 84 157 0.0 0.0 0.00 0.00 0.00 63 1043.2
20260831232603 85 140 0.0 0.0 0.00 0.00 0.00 59 1043.1
20260831232059 87 148 0.0 1.0 0.00 0.00 0.00 57 1043.3
20260831231555 86 63 0.0 1.0 0.00 0.00 0.00 56 1043.2
20260831231050 87 145 0.0 2.0 0.00 0.00 0.00 56 1043.2
20260831230545 87 139 0.0 1.0 0.00 0.00 0.00 57 1043.3
20260831230040 86 302 1.0 2.0 0.00 0.00 0.00 58 1043.3
20260831225535 87 121 1.0 1.0 0.00 0.00 0.00 58 1043.1
20260831225030 88 147 0.0 1.0 0.00 0.00 0.00 56 1043.2
20260831224525 88 80 2.0 2.0 0.00 0.00 0.00 54 1043.2
20260831224020 88 145 1.0 2.0 0.00 0.00 0.00 55 1043.2
20260831223515 89 141 1.0 1.0 0.00 0.00 0.00 54 1043.2
20260831223012 89 162 0.0 2.0 0.00 0.00 0.00 55 1043.1
20260831222508 89 170 0.0 1.0 0.00 0.00 0.00 55 1042.9
20260831222007 89 133 0.0 1.0 0.00 0.00 0.00 55 1042.8
20260831221503 89 159 1.0 1.0 0.00 0.00 0.00 57 1042.8
20260831220958 88 172 1.0 1.0 0.00 0.00 0.00 54 1042.8
20260831220453 90 156 0.0 1.0 0.00 0.00 0.00 52 1042.7
20260831215948 90 145 0.0 1.0 0.00 0.00 0.00 51 1042.9
20260831215444 89 162 0.0 1.0 0.00 0.00 0.00 54 1043.1
20260831214940 89 148 1.0 2.0 0.00 0.00 0.00 57 1042.8
20260831214437 89 211 2.0 2.0 0.00 0.00 0.00 53 1042.8
20260831213933 89 162 0.0 1.0 0.00 0.00 0.00 55 1042.9
20260831213429 89 132 0.0 2.0 0.00 0.00 0.00 55 1042.7
20260831212929 89 149 1.0 1.0 0.00 0.00 0.00 54 1042.9
20260831212426 89 152 0.0 2.0 0.00 0.00 0.00 55 1042.9
20260831211925 89 99 0.0 1.0 0.00 0.00 0.00 56 1043.0
20260831211420 90 340 1.0 2.0 0.00 0.00 0.00 54 1042.8
20260831210914 89 139 1.0 2.0 0.00 0.00 0.00 57 1042.8
20260831210409 89 93 1.0 3.0 0.00 0.00 0.00 56 1042.8
20260831205905 89 56 2.0 2.0 0.00 0.00 0.00 58 1043.0
20260831205400 89 175 2.0 2.0 0.00 0.00 0.00 56 1043.0
20260831204854 89 334 1.0 2.0 0.00 0.00 0.00 60 1043.0
20260831204349 89 73 1.0 2.0 0.00 0.00 0.00 57 1043.0
20260831203848 89 200 1.0 3.0 0.00 0.00 0.00 55 1043.0
20260831203343 88 130 1.0 2.0 0.00 0.00 0.00 55 1042.7
20260831202841 89 201 2.0 3.0 0.00 0.00 0.00 61 1042.8
20260831202336 88 150 0.0 3.0 0.00 0.00 0.00 61 1042.8
20260831201836 88 102 1.0 2.0 0.00 0.00 0.00 58 1042.7
20260831201335 88 168 1.0 3.0 0.00 0.00 0.00 57 1042.7
20260831200831 89 232 1.0 3.0 0.00 0.00 0.00 56 1042.9
20260831200326 89 159 0.0 1.0 0.00 0.00 0.00 59 1042.5
20260831195821 89 232 3.0 3.0 0.00 0.00 0.00 59 1042.5
20260831195317 87 138 1.0 3.0 0.00 0.00 0.00 65 1042.5
20260831194812 87 310 0.0 2.0 0.00 0.00 0.00 63 1042.6
20260831194307 87 170 1.0 1.0 0.00 0.00 0.00 61 1042.6
20260831193806 87 72 2.0 2.0 0.00 0.00 0.00 63 1042.5
20260831193301 87 135 1.0 3.0 0.00 0.00 0.00 64 1042.6
20260831192756 87 113 0.0 1.0 0.00 0.00 0.00 65 1042.7
20260831192251 86 129 1.0 5.0 0.00 0.00 0.00 68 1042.8
20260831191747 86 175 1.0 3.0 0.00 0.00 0.00 65 1042.7
20260831191243 86 322 2.0 2.0 0.00 0.00 0.00 66 1042.3
20260831190738 86 175 2.0 3.0 0.00 0.00 0.00 65 1042.5
20260831190233 87 135 0.0 2.0 0.00 0.00 0.00 64 1042.7
20260831185727 87 101 1.0 2.0 0.00 0.00 0.00 66 1042.6
20260831185223 86 88 1.0 3.0 0.00 0.00 0.00 67 1042.7
20260831184722 87 175 1.0 1.0 0.00 0.00 0.00 63 1042.5
20260831184218 86 110 3.0 3.0 0.00 0.00 0.00 65 1042.5
20260831183717 85 306 1.0 5.0 0.00 0.00 0.00 69 1042.5
20260831183212 85 110 1.0 3.0 0.00 0.00 0.00 70 1042.7
20260831182711 85 297 1.0 2.0 0.00 0.00 0.00 71 1042.7
20260831182206 83 160 1.0 3.0 0.00 0.00 0.00 76 1042.5
20260831181701 85 111 1.0 1.0 0.00 0.00 0.00 72 1042.8
20260831181155 85 245 2.0 3.0 0.00 0.00 0.00 73 1042.7
20260831180651 83 148 1.0 2.0 0.00 0.00 0.00 75 1042.7
20260831180146 83 188 2.0 2.0 0.00 0.00 0.00 75 1042.5
20260831175645 83 157 0.0 2.0 0.00 0.00 0.00 77 1042.7
20260831175142 83 153 1.0 3.0 0.00 0.00 0.00 76 1042.9
20260831174637 84 176 2.0 3.0 0.00 0.00 0.00 76 1042.7
20260831174132 83 135 0.0 2.0 0.00 0.00 0.00 77 1042.8
20260831173630 82 124 0.0 1.0 0.00 0.00 0.00 78 1043.0
20260831173127 82 85 2.0 3.0 0.00 0.00 0.00 78 1043.1
20260831172626 82 74 2.0 3.0 0.00 0.00 0.00 79 1043.2
20260831172126 82 161 0.0 2.0 0.00 0.00 0.00 78 1043.2
20260831171621 82 175 1.0 2.0 0.00 0.00 0.00 80 1043.2
20260831171119 81 144 0.0 1.0 0.00 0.00 0.00 81 1043.2
20260831170615 81 170 3.0 3.0 0.00 0.00 0.00 81 1043.1
20260831170112 80 121 1.0 2.0 0.00 0.00 0.00 83 1043.0
20260831165607 80 144 0.0 1.0 0.00 0.00 0.00 84 1043.0
20260831165104 80 161 0.0 1.0 0.00 0.00 0.00 85 1043.0
20260831164559 79 146 0.0 2.0 0.00 0.00 0.00 87 1043.0
20260831164054 79 89 2.0 2.0 0.00 0.00 0.00 87 1042.7
20260831163549 79 70 2.0 2.0 0.00 0.00 0.00 86 1042.9
20260831163045 79 125 0.0 1.0 0.00 0.00 0.00 87 1042.8
20260831162544 79 166 0.0 1.0 0.00 0.00 0.00 86 1042.8
20260831162042 78 69 4.0 5.0 0.00 0.00 0.00 86 1042.7
20260831161539 77 143 0.0 1.0 0.00 0.00 0.00 89 1042.7
20260831161035 77 142 0.0 3.0 0.00 0.00 0.00 91 1042.7
20260831160533 76 140 0.0 1.0 0.00 0.00 0.00 92 1042.7
20260831160029 76 121 2.0 3.0 0.00 0.00 0.00 92 1042.8
20260831155524 76 118 0.0 1.0 0.00 0.00 0.00 93 1042.7
20260831155019 75 141 0.0 0.0 0.00 0.00 0.00 94 1042.6
20260831154515 75 134 1.0 2.0 0.00 0.00 0.00 93 1042.6
20260831154014 75 88 1.0 2.0 0.00 0.00 0.00 94 1042.6
20260831153509 75 158 0.0 2.0 0.00 0.00 0.00 95 1042.4
20260831153006 75 83 1.0 1.0 0.00 0.00 0.00 95 1042.5
20260831152501 75 131 0.0 2.0 0.00 0.00 0.00 95 1042.5
20260831151956 75 160 1.0 1.0 0.00 0.00 0.00 95 1042.3
20260831151455 75 264 1.0 2.0 0.00 0.00 0.00 94 1042.1
20260831150950 75 43 1.0 1.0 0.00 0.00 0.00 94 1042.1
20260831150446 74 144 0.0 2.0 0.00 0.00 0.00 95 1042.1
20260831145945 74 159 0.0 1.0 0.00 0.00 0.00 95 1041.9
20260831145441 74 144 1.0 2.0 0.00 0.00 0.00 95 1041.7
20260831144937 74 124 0.0 1.0 0.00 0.00 0.00 95 1041.7
20260831144432 74 101 1.0 1.0 0.00 0.00 0.00 95 1041.9
20260831143927 74 318 1.0 2.0 0.00 0.00 0.00 95 1042.0
20260831143422 74 145 0.0 1.0 0.00 0.00 0.00 95 1041.6
20260831142918 74 106 1.0 1.0 0.00 0.00 0.00 95 1041.5
20260831142414 74 120 0.0 1.0 0.00 0.00 0.00 96 1041.5
20260831141908 73 240 0.0 1.0 0.00 0.00 0.00 96 1041.6
20260831141402 73 122 1.0 1.0 0.00 0.00 0.00 96 1041.5
20260831140857 73 155 0.0 0.0 0.00 0.00 0.00 97 1041.5
20260831140352 73 155 0.0 0.0 0.00 0.00 0.00 97 1041.4
20260831135850 73 155 0.0 0.0 0.00 0.00 0.00 97 1041.2
20260831135345 73 152 0.0 0.0 0.00 0.00 0.00 98 1041.3
20260831134841 72 145 0.0 0.0 0.00 0.00 0.00 98 1041.1
20260831134337 72 147 0.0 0.0 0.00 0.00 0.00 98 1041.0
20260831133836 72 148 0.0 0.0 0.00 0.00 0.00 98 1041.2
20260831133336 72 144 0.0 0.0 0.00 0.00 0.00 99 1041.1
20260831132832 71 144 0.0 0.0 0.00 0.00 0.00 99 1041.5
20260831132327 71 137 0.0 0.0 0.00 0.00 0.00 99 1041.2
20260831131826 71 159 0.0 0.0 0.00 0.00 0.00 99 1041.3
20260831131323 71 159 0.0 0.0 0.00 0.00 0.00 99 1041.3
20260831130817 71 160 0.0 0.0 0.00 0.00 0.00 99 1040.9
20260831130313 71 160 0.0 0.0 0.00 0.00 0.00 99 1040.9
20260831125812 71 159 0.0 0.0 0.00 0.00 0.00 99 1040.9
20260831125308 71 159 0.0 0.0 0.00 0.00 0.00 99 1040.9
20260831124807 71 153 0.0 0.0 0.00 0.00 0.00 99 1040.9
20260831124303 70 153 0.0 0.0 0.00 0.00 0.00 99 1040.6
20260831123758 70 153 0.0 0.0 0.00 0.00 0.00 99 1040.5
20260831123257 70 154 0.0 0.0 0.00 0.00 0.00 99 1040.5
20260831122751 70 152 0.0 0.0 0.00 0.00 0.00 99 1040.2
20260831122247 69 152 0.0 0.0 0.00 0.00 0.00 99 1039.8
20260831121746 69 152 0.0 1.0 0.00 0.00 0.00 99 1040.1
20260831121243 69 152 0.0 1.0 0.00 0.00 0.00 99 1039.8
20260831120738 69 152 0.0 0.0 0.00 0.00 0.00 99 1040.1
20260831120233 69 152 0.0 1.0 0.00 0.00 0.00 99 1040.1
20260831115728 69 152 0.0 0.0 0.00 0.00 0.00 99 1040.1
20260831115224 69 152 0.0 0.0 0.00 0.00 0.00 99 1039.9
20260831114724 69 152 0.0 1.0 0.00 0.00 0.00 99 1039.8
20260831114223 69 152 0.0 0.0 0.00 0.00 0.00 99 1039.9
20260831113719 69 152 0.0 0.0 0.00 0.00 0.00 99 1040.0
20260831113213 69 156 1.0 1.0 0.00 0.00 0.00 99 1039.7
20260831112712 69 150 0.0 0.0 0.00 0.00 0.00 99 1039.7
20260831112208 69 150 0.0 1.0 0.00 0.00 0.00 99 1039.7
20260831111704 69 150 0.0 0.0 0.00 0.00 0.00 99 1039.6
20260831111200 69 150 0.0 0.0 0.00 0.00 0.00 99 1039.7
20260831110655 69 149 1.0 1.0 0.00 0.00 0.00 99 1039.6
20260831110149 69 153 0.0 1.0 0.00 0.00 0.00 99 1039.8
20260831105648 69 153 0.0 0.0 0.00 0.00 0.00 99 1039.9
20260831105144 69 153 0.0 1.0 0.00 0.00 0.00 99 1039.7
20260831104639 70 152 0.0 1.0 0.00 0.00 0.00 99 1039.5
20260831104136 70 155 1.0 1.0 0.00 0.00 0.00 99 1039.5
20260831103631 70 153 1.0 1.0 0.00 0.00 0.00 99 1039.7
20260831103126 70 154 1.0 1.0 0.00 0.00 0.00 99 1039.7
20260831102626 70 152 0.0 1.0 0.00 0.00 0.00 99 1039.4
20260831102121 70 152 0.0 1.0 0.00 0.00 0.00 98 1039.3
20260831101621 70 153 0.0 1.0 0.00 0.00 0.00 98 1038.9
20260831101117 70 156 1.0 2.0 0.00 0.00 0.00 98 1039.0
20260831100613 70 152 1.0 1.0 0.00 0.00 0.00 98 1039.2
20260831100109 70 157 1.0 1.0 0.00 0.00 0.00 98 1039.2
20260831095607 70 153 1.0 2.0 0.00 0.00 0.00 98 1039.3
20260831095102 70 153 0.0 0.0 0.00 0.00 0.00 98 1039.2
20260831094557 70 154 1.0 1.0 0.00 0.00 0.00 98 1039.4
20260831094054 70 152 1.0 2.0 0.00 0.00 0.00 98 1039.3
20260831093549 70 153 1.0 1.0 0.00 0.00 0.00 98 1039.4
20260831093045 70 153 0.0 1.0 0.00 0.00 0.00 98 1039.5
20260831092541 70 153 0.0 1.0 0.00 0.00 0.00 97 1039.5
20260831092036 70 153 1.0 1.0 0.00 0.00 0.00 97 1039.5
20260831091536 70 153 0.0 1.0 0.00 0.00 0.00 97 1039.5
20260831091032 70 151 0.0 1.0 0.00 0.00 0.00 97 1039.5
20260831090527 70 151 0.0 1.0 0.00 0.00 0.00 96 1039.5
20260831090023 70 147 1.0 2.0 0.00 0.00 0.00 96 1039.3
20260831085518 70 149 1.0 2.0 0.00 0.00 0.00 96 1039.4
20260831085013 70 148 1.0 2.0 0.00 0.00 0.00 96 1039.2
20260831084509 70 151 1.0 2.0 0.00 0.00 0.00 96 1039.0
20260831084005 71 153 1.0 1.0 0.00 0.00 0.00 95 1039.2
20260831083500 71 150 1.0 1.0 0.00 0.00 0.00 95 1039.1
20260831082959 71 150 1.0 1.0 0.00 0.00 0.00 95 1039.3
20260831082454 71 146 1.0 2.0 0.00 0.00 0.00 95 1039.0
20260831081948 71 147 2.0 2.0 0.00 0.00 0.00 95 1039.1
20260831081444 71 161 2.0 2.0 0.00 0.00 0.00 94 1039.2
20260831080940 71 148 2.0 3.0 0.00 0.00 0.00 94 1039.1
20260831080434 71 155 1.0 2.0 0.00 0.00 0.00 94 1038.9
20260831075930 71 164 3.0 3.0 0.00 0.00 0.00 94 1039.0
20260831075426 71 150 1.0 3.0 0.00 0.00 0.00 94 1038.9
20260831074921 71 159 2.0 3.0 0.00 0.00 0.00 93 1039.0
20260831074415 71 151 1.0 2.0 0.00 0.00 0.00 94 1039.2
20260831073910 71 146 2.0 3.0 0.00 0.00 0.00 94 1039.2
20260831073409 71 158 1.0 2.0 0.00 0.00 0.00 94 1039.1
20260831072903 71 155 1.0 2.0 0.00 0.00 0.00 93 1039.1
20260831072359 71 147 1.0 3.0 0.00 0.00 0.00 93 1039.0
20260831071855 71 146 2.0 3.0 0.00 0.00 0.00 93 1039.3
20260831071354 71 165 1.0 2.0 0.00 0.00 0.00 93 1039.1
20260831070849 71 154 2.0 2.0 0.00 0.00 0.00 93 1039.4
20260831070348 71 144 1.0 2.0 0.00 0.00 0.00 93 1039.3
20260831065848 71 152 1.0 2.0 0.00 0.00 0.00 93 1039.6
20260831065345 71 149 1.0 2.0 0.00 0.00 0.00 92 1039.6
20260831064840 71 145 1.0 2.0 0.00 0.00 0.00 92 1039.6
20260831064336 71 161 1.0 2.0 0.00 0.00 0.00 92 1039.7
20260831063832 71 154 1.0 2.0 0.00 0.00 0.00 92 1039.8
20260831063327 71 149 1.0 1.0 0.00 0.00 0.00 92 1039.7
20260831062827 71 156 1.0 2.0 0.00 0.00 0.00 92 1040.1
20260831062322 71 153 1.0 2.0 0.00 0.00 0.00 92 1040.1
20260831061821 71 152 1.0 2.0 0.00 0.00 0.00 92 1040.1
20260831061320 71 148 1.0 1.0 0.00 0.00 0.00 92 1040.1
20260831060816 71 142 1.0 2.0 0.00 0.00 0.00 92 1040.2
20260831060316 71 146 1.0 2.0 0.00 0.00 0.00 92 1040.1
20260831055815 71 170 1.0 2.0 0.00 0.00 0.00 92 1040.5
20260831055311 72 143 1.0 1.0 0.00 0.00 0.00 92 1040.6
20260831054806 72 148 1.0 2.0 0.00 0.00 0.00 92 1040.2
20260831054301 72 149 1.0 1.0 0.00 0.00 0.00 92 1040.5
20260831053800 72 157 0.0 2.0 0.00 0.00 0.00 91 1040.6
20260831053259 72 149 0.0 2.0 0.00 0.00 0.00 91 1040.7
20260831052754 72 126 2.0 2.0 0.00 0.00 0.00 91 1040.6
20260831052253 72 145 1.0 2.0 0.00 0.00 0.00 91 1040.5
20260831051751 73 151 1.0 2.0 0.00 0.00 0.00 91 1040.6
20260831051250 73 151 1.0 1.0 0.00 0.00 0.00 90 1040.7
20260831050745 73 150 1.0 2.0 0.00 0.00 0.00 90 1040.8
20260831050244 73 159 2.0 2.0 0.00 0.00 0.00 91 1040.8
20260831045738 73 146 1.0 2.0 0.00 0.00 0.00 91 1040.9
20260831045233 72 153 1.0 2.0 0.00 0.00 0.00 91 1041.1
20260831044728 72 155 1.0 1.0 0.00 0.00 0.00 92 1041.2
20260831044223 72 154 0.0 1.0 0.00 0.00 0.00 92 1041.3
20260831043719 73 154 1.0 1.0 0.00 0.00 0.00 91 1041.3
20260831043214 73 154 0.0 1.0 0.00 0.00 0.00 90 1041.4
20260831042713 73 153 1.0 1.0 0.00 0.00 0.00 90 1041.3
20260831042208 73 152 0.0 1.0 0.00 0.00 0.00 90 1041.2
20260831041703 74 152 0.0 1.0 0.00 0.00 0.00 89 1040.9
20260831041202 74 149 0.0 1.0 0.00 0.00 0.00 88 1041.2
20260831040657 74 154 2.0 2.0 0.00 0.00 0.00 88 1041.2
20260831040156 74 156 1.0 3.0 0.00 0.00 0.00 88 1041.1
20260831035655 74 153 2.0 2.0 0.00 0.00 0.00 89 1041.0
20260831035150 74 152 1.0 2.0 0.00 0.00 0.00 90 1041.1
20260831034649 74 150 1.0 2.0 0.00 0.00 0.00 90 1041.1